This is the latest recevied weather packets stored in our database for station/object KE5OYL. If no packets are shown the sender has not sent any weather packets the latest 10 day(s).
| Time | Temp. | Humidity | Pressure | Rain* | Wind** | Luminosity | Snow |
|---|---|---|---|---|---|---|---|
| 1777162943 | 28.89° C | 66% | 1005.2 hPa | 0 mm | - | 11 W/m² | - |
| 1777162642 | 28.89° C | 66% | 1005.1 hPa | 0 mm | - | 13 W/m² | - |
| 1777162336 | 28.89° C | 65% | 1005.1 hPa | 0 mm | - | 14 W/m² | - |
| 1777162026 | 28.89° C | 65% | 1005 hPa | 0 mm | - | 17 W/m² | - |
| 1777161721 | 28.89° C | 65% | 1005 hPa | 0 mm | - | 18 W/m² | - |
| 1777161419 | 28.89° C | 65% | 1004.9 hPa | 0 mm | - | 22 W/m² | - |
| 1777161115 | 29.44° C | 65% | 1005.1 hPa | 0 mm | - | 24 W/m² | - |
| 1777160811 | 29.44° C | 65% | 1005.2 hPa | 0 mm | - | 30 W/m² | - |
| 1777160511 | 29.44° C | 65% | 1005.2 hPa | 0 mm | - | 38 W/m² | - |
| 1777160208 | 29.44° C | 64% | 1005.2 hPa | 0 mm | - | 61 W/m² | - |
| 1777159903 | 29.44° C | 64% | 1005.2 hPa | 0 mm | - | 70 W/m² | - |
| 1777159599 | 29.44° C | 64% | 1004.7 hPa | 0 mm | - | 93 W/m² | - |
| 1777159297 | 29.44° C | 64% | 1004.9 hPa | 0 mm | - | 125 W/m² | - |
| 1777158992 | 29.44° C | 64% | 1004.8 hPa | 0 mm | - | 103 W/m² | - |
| 1777158687 | 30° C | 63% | 1005 hPa | 0 mm | - | 100 W/m² | - |
| 1777158382 | 30° C | 61% | 1004.9 hPa | 0 mm | - | 202 W/m² | - |
| 1777158079 | 30° C | 62% | 1004.7 hPa | 0 mm | - | 160 W/m² | - |
| 1777157774 | 30° C | 61% | 1004.6 hPa | 0 mm | - | 265 W/m² | - |
| 1777157470 | 30° C | 63% | 1004.6 hPa | 0 mm | - | 218 W/m² | - |
| 1777157167 | 30° C | 62% | 1004.6 hPa | 0 mm | - | 155 W/m² | - |
| 1777156866 | 30.56° C | 61% | 1004.8 hPa | 0 mm | - | 248 W/m² | - |
| 1777156561 | 30.56° C | 61% | 1005 hPa | 0 mm | - | 303 W/m² | - |
| 1777156258 | 30° C | 61% | 1005.1 hPa | 0 mm | - | 332 W/m² | - |
| 1777155955 | 30° C | 61% | 1005.2 hPa | 0 mm | - | 244 W/m² | - |
| 1777155650 | 30° C | 61% | 1005 hPa | 0 mm | - | 416 W/m² | - |
* Rain latest hour (hover to see other rain measurements)
** Current wind speed in m/s (hover to see current wind gust speed)